Location: Taukkyan
(23.1052°N, 94.0030°E)
Time: 11:52:11
(UTC+00:00)

SJ-11-01 - Pass Details

Date: 06 July 2020
Orbit: 685 x 700 km, 98.0° (Epoch: 15 August)

Event Time Altitude Azimuth Distance (km) Brightness Sun altitude
Rises 12:48:29 0° 157° (SSE) 3,036 7.1 -3.9°
Reaches altitude 10° 12:50:46 10° 152° (SSE) 2,122 6.3 -4.3°
Maximum altitude 12:55:16 52° 76° (ENE) 845 4.5 -5.3°
Drops below altitude 10° 12:59:47 10° 0° (N) 2,131 7.2 -6.2°
Sets 13:02:04 0° 356° (N) 3,050 8.1 -6.6°
